Back to catalog

COSMOS 397 DEB

AliveLEO
NORAD 5098·DEBRIS·🇷🇺 Russia

Launched Feb 25, 1971 from Baikonur Cosmodrome

Loading…

Next Passes (next 24 hours)

TLE

FreshSource: Space-Track

Epoch: Sep 14, 2026, 10:58 UTC

1 05098U 71015X   26257.45694665  .00000678  00000-0  24719-3 0  9990
2 05098  65.8314  59.9687 0716149 284.2402  68.0178 13.48046898663090

Track COSMOS 397 DEB in real time with AllMySat

Download on the App Store